weather.gov     
National Weather Service

Regional Weather Roundup
NWS Homepage
This page is being discontinued on March 12, 2014.
The same data is available at this site. Please update your bookmarks.
Thank you, and we apologize for the inconvenience.
Please send an email to SR-SRH.Webmaster@noaa.gov with any concerns.


Current Version
Previous Version:    01  02  03  04  05  06  07  08  09  10  11  12  13  14  15  16  17  18  19  20  21  22  23  24  25  26  27  28  29  30  
   31  32  33  34  35  36  37  38  39  40  41  42  43  44  45  46  47  48  49  50  51  52  53  
[Printable]
269
ASUS43 KTOP 291408
RWRKS

WEATHER ROUNDUP FOR KANSAS
NATIONAL WEATHER SERVICE GOODLAND KS
900 AM CDT TUE JUL 29 2014

NOTE:  "FAIR" INDICATES FEW OR NO CLOUDS BELOW 12,000 FEET WITH NO
SIGNIFICANT WEATHER AND/OR OBSTRUCTIONS TO VISIBILITY.

KSZ001>006-013>018-027>032-041>047-291500-
NORTHWEST KANSAS

CITY           SKY/WX    TMP DP  RH WIND       PRES   REMARKS
GOODLAND       SUNNY     68  62  81 S10       30.22S
HAYS           SUNNY     70  55  60 SE16      30.21S
HILL CITY      SUNNY     72  55  55 SE10      30.22S
RUSSELL        SUNNY     70  57  63 SE13      30.20S
$$

KSZ061>065-074>080-084>089-291500-
SOUTHWEST KANSAS

CITY           SKY/WX    TMP DP  RH WIND       PRES   REMARKS
DODGE CITY     SUNNY     74  57  55 S8        30.21R
ELKHART          N/A    N/A N/A N/A MISG        N/A
GARDEN CITY    MOSUNNY   72  59  63 S13       30.21R
GREAT BEND     MOSUNNY   70  57  64 SE12      30.20S
LIBERAL        PTSUNNY   68  59  73 S10       30.25R
PRATT          SUNNY     68  55  64 SE9       30.22R
$$

KSZ066>073-081>083-090>101-291500-
SOUTHEAST KANSAS

CITY           SKY/WX    TMP DP  RH WIND       PRES   REMARKS
CHANUTE        SUNNY     71  60  68 E5        30.19S
COFFEYVILLE    MOSUNNY   72  61  68 CALM      30.18S
HUTCHINSON     SUNNY     67  58  72 E7        30.21R
MEDICINE LODGE   N/A     71  59  65 SE7       30.19R
NEWTON         MOSUNNY   70  54  56 SE7       30.24S
PARSONS        MOSUNNY   73  61  65 CALM      30.20R
WICHITA INTL   MOSUNNY   73  59  61 SE7       30.20S
WICHITA JABRA  MOSUNNY   72  61  68 E6        30.20S
WICHITA MCCONL SUNNY     72  61  68 E7        30.20S
WINFIELD       SUNNY     73  61  65 SE6       30.20S
$$

KSZ007>012-019>026-033>040-048>060-102>105-291500-
NORTHEAST KANSAS

CITY           SKY/WX    TMP DP  RH WIND       PRES   REMARKS
CONCORDIA      CLOUDY    66  59  78 E3        30.23R
EMPORIA        CLOUDY    66  59  78 CALM      30.21R
LAWRENCE       PTSUNNY   70  60  70 CALM      30.19S
MANHATTAN      CLOUDY    70  57  63 CALM      30.21R
MARYSVILLE     CLOUDY    66  59  77 CALM      30.21S
OLATHE IND     SUNNY     69  59  70 CALM      30.20R
OLATHE EXE     SUNNY     69  59  70 CALM      30.18S
SALINA         MOSUNNY   70  57  63 SE5       30.21S
TOPEKA BILLARD MOSUNNY   70  58  65 CALM      30.19S
TOPEKA FORBES  PTSUNNY   72  58  61 CALM      30.19S
$$




U.S. Dept. of Commerce
NOAA National Weather Service
1325 East West Highway
Silver Spring, MD 20910
E-mail: w-nws.webmaster@noaa.gov
Page last modified: May 16, 2007
NATIONAL WEATHER SERVICE: for Safety, for Work, for Fun - FOR LIFE